Hourly Weather Kozmin

Today, 20 October, Tuesday

Time Temperature Precipitation Wind Pressure Humidity
00:00 +6°C° 0 mm 1 mps 762 mmHg 90%
01:00 +6°C° 0 mm 1 mps 762 mmHg 91%
02:00 +5°C° 0 mm 2 mps 762 mmHg 91%
03:00 +5°C° 0 mm 2 mps 761 mmHg 91%
04:00 +5°C° 0 mm 2 mps 761 mmHg 91%
05:00 +5°C° 0 mm 2 mps 761 mmHg 91%
06:00 +5°C° 0 mm 2 mps 761 mmHg 91%
07:00 +5°C° 0 mm 2 mps 761 mmHg 90%
08:00 +7°C° 0 mm 3 mps 761 mmHg 82%
09:00 +7°C° 0 mm 4 mps 760 mmHg 74%
10:00 +10°C° 0 mm 4 mps 760 mmHg 65%
11:00 +10°C° 0 mm 5 mps 759 mmHg 63%
12:00 +10°C° 0 mm 5 mps 759 mmHg 62%
13:00 +11°C° 0 mm 6 mps 759 mmHg 60%
14:00 +12°C° 0 mm 5 mps 758 mmHg 63%
15:00 +12°C° 0 mm 4 mps 757 mmHg 66%
16:00 +12°C° 0 mm 4 mps 756 mmHg 69%
17:00 +11°C° 0 mm 4 mps 756 mmHg 72%
18:00 +10°C° 0 mm 4 mps 756 mmHg 74%
19:00 +10°C° 0 mm 4 mps 756 mmHg 76%
20:00 +10°C° 0 mm 4 mps 756 mmHg 76%
21:00 +10°C° 0 mm 4 mps 756 mmHg 75%
22:00 +10°C° 0 mm 4 mps 755 mmHg 74%
23:00 +10°C° 0.1 mm 4 mps 755 mmHg 74%

Tomorrow, 21 October, Wednesday

Time Temperature Precipitation Wind Pressure Humidity
00:00 +11°C° 0.1 mm 3 mps 755 mmHg 74%
01:00 +11°C° 0.1 mm 3 mps 755 mmHg 74%
02:00 +11°C° 0.1 mm 3 mps 755 mmHg 76%
03:00 +11°C° 0.1 mm 3 mps 755 mmHg 78%
04:00 +10°C° 0.1 mm 3 mps 755 mmHg 80%
05:00 +10°C° 0.1 mm 3 mps 755 mmHg 81%
06:00 +10°C° 0.1 mm 3 mps 755 mmHg 82%
07:00 +10°C° 0.1 mm 3 mps 755 mmHg 83%
08:00 +11°C° 0 mm 3 mps 755 mmHg 80%
09:00 +11°C° 0 mm 3 mps 755 mmHg 78%
10:00 +11°C° 0 mm 3 mps 755 mmHg 75%
11:00 +11°C° 0 mm 3 mps 755 mmHg 74%
12:00 +12°C° 0 mm 4 mps 754 mmHg 72%
13:00 +12°C° 0 mm 4 mps 754 mmHg 71%
14:00 +12°C° 0 mm 3 mps 754 mmHg 71%
15:00 +12°C° 0 mm 3 mps 754 mmHg 71%
16:00 +12°C° 0 mm 3 mps 753 mmHg 72%
17:00 +12°C° 0 mm 3 mps 753 mmHg 72%
18:00 +12°C° 0 mm 3 mps 753 mmHg 73%
19:00 +12°C° 0 mm 4 mps 753 mmHg 74%
20:00 +12°C° 0 mm 4 mps 754 mmHg 74%
21:00 +12°C° 0 mm 4 mps 754 mmHg 74%
22:00 +12°C° 0 mm 5 mps 754 mmHg 73%
23:00 +12°C° 0 mm 5 mps 754 mmHg 73%

Day after tomorrow, 22 October, Thursday

Time Temperature Precipitation Wind Pressure Humidity
00:00 +12°C° 0 mm 4 mps 754 mmHg 72%
01:00 +12°C° 0 mm 4 mps 754 mmHg 71%
02:00 +12°C° 0 mm 4 mps 754 mmHg 71%
03:00 +12°C° 0 mm 4 mps 754 mmHg 72%
04:00 +12°C° 0 mm 4 mps 754 mmHg 72%
05:00 +12°C° 0 mm 4 mps 755 mmHg 73%
06:00 +12°C° 0 mm 4 mps 755 mmHg 74%
07:00 +12°C° 0 mm 4 mps 755 mmHg 75%
08:00 +13°C° 0 mm 4 mps 755 mmHg 71%
09:00 +15°C° 0 mm 5 mps 755 mmHg 67%
10:00 +17°C° 0 mm 5 mps 755 mmHg 63%
11:00 +17°C° 0 mm 5 mps 755 mmHg 61%
12:00 +19°C° 0 mm 5 mps 755 mmHg 60%
13:00 +20°C° 0 mm 5 mps 755 mmHg 58%
14:00 +19°C° 0 mm 4 mps 755 mmHg 62%
15:00 +18°C° 0 mm 3 mps 755 mmHg 66%
16:00 +18°C° 0 mm 3 mps 755 mmHg 70%
17:00 +17°C° 0 mm 4 mps 755 mmHg 71%
18:00 +17°C° 0 mm 4 mps 755 mmHg 72%
19:00 +15°C° 0 mm 5 mps 755 mmHg 73%
20:00 +15°C° 0 mm 5 mps 754 mmHg 71%
21:00 +15°C° 0 mm 5 mps 754 mmHg 68%
22:00 +15°C° 0 mm 5 mps 754 mmHg 66%
23:00 +15°C° 0 mm 5 mps 754 mmHg 68%

23 October, Friday

Time Temperature Precipitation Wind Pressure Humidity
00:00 +15°C° 0 mm 4 mps 754 mmHg 69%
01:00 +15°C° 0 mm 4 mps 754 mmHg 70%
02:00 +15°C° 0.3 mm 4 mps 753 mmHg 76%
03:00 +14°C° 0.3 mm 5 mps 753 mmHg 82%
04:00 +14°C° 0.3 mm 5 mps 753 mmHg 87%
05:00 +14°C° 0.1 mm 5 mps 753 mmHg 87%
06:00 +14°C° 0.1 mm 5 mps 752 mmHg 86%
07:00 +14°C° 0.1 mm 5 mps 752 mmHg 86%
08:00 +15°C° 0 mm 5 mps 752 mmHg 83%
09:00 +15°C° 0 mm 6 mps 753 mmHg 79%
10:00 +16°C° 0 mm 6 mps 753 mmHg 76%
11:00 +17°C° 0 mm 6 mps 753 mmHg 71%
12:00 +17°C° 0 mm 6 mps 753 mmHg 66%
13:00 +19°C° 0 mm 6 mps 752 mmHg 61%
14:00 +17°C° 0 mm 5 mps 752 mmHg 62%
15:00 +18°C° 0 mm 4 mps 752 mmHg 64%
16:00 +17°C° 0 mm 3 mps 752 mmHg 65%
17:00 +16°C° 0 mm 3 mps 752 mmHg 69%
18:00 +14°C° 0 mm 3 mps 753 mmHg 73%
19:00 +13°C° 0 mm 3 mps 753 mmHg 76%
20:00 +13°C° 0 mm 3 mps 753 mmHg 77%
21:00 +13°C° 0 mm 3 mps 753 mmHg 77%
22:00 +13°C° 0 mm 3 mps 753 mmHg 78%
23:00 +13°C° 0 mm 4 mps 753 mmHg 78%

24 October, Saturday

Time Temperature Precipitation Wind Pressure Humidity
00:00 +12°C° 0 mm 4 mps 754 mmHg 79%
01:00 +12°C° 0 mm 5 mps 754 mmHg 79%
02:00 +10°C° 0 mm 5 mps 754 mmHg 78%
03:00 +9°C° 0 mm 5 mps 754 mmHg 77%
04:00 +9°C° 0 mm 5 mps 754 mmHg 75%
05:00 +8°C° 0.2 mm 5 mps 754 mmHg 78%
06:00 +8°C° 0.2 mm 5 mps 754 mmHg 81%
07:00 +8°C° 0.2 mm 5 mps 754 mmHg 83%
08:00 +9°C° 0.5 mm 6 mps 754 mmHg 79%
09:00 +10°C° 0.5 mm 7 mps 754 mmHg 75%
10:00 +11°C° 0.5 mm 8 mps 755 mmHg 70%
11:00 +11°C° 0.1 mm 8 mps 755 mmHg 68%
12:00 +11°C° 0.1 mm 8 mps 756 mmHg 65%
13:00 +11°C° 0.1 mm 8 mps 756 mmHg 62%
14:00 +10°C° 0 mm 7 mps 756 mmHg 64%
15:00 +10°C° 0 mm 6 mps 757 mmHg 66%
16:00 +9°C° 0 mm 5 mps 757 mmHg 67%
17:00 +10°C° 0 mm 4 mps 757 mmHg 71%
18:00 +8°C° 0 mm 4 mps 758 mmHg 74%
19:00 +8°C° 0 mm 3 mps 758 mmHg 77%
20:00 +8°C° 0 mm 3 mps 759 mmHg 79%
21:00 +7°C° 0 mm 3 mps 759 mmHg 81%
22:00 +7°C° 0 mm 3 mps 759 mmHg 83%
23:00 +7°C° 0 mm 2 mps 759 mmHg 84%

25 October, Sunday

Time Temperature Precipitation Wind Pressure Humidity
00:00 +6°C° 0 mm 2 mps 759 mmHg 85%
01:00 +6°C° 0 mm 2 mps 760 mmHg 87%
02:00 +6°C° 0 mm 2 mps 760 mmHg 87%
03:00 +6°C° 0 mm 2 mps 760 mmHg 87%
04:00 +6°C° 0 mm 1 mps 760 mmHg 87%
05:00 +6°C° 0 mm 1 mps 760 mmHg 87%
06:00 +6°C° 0 mm 1 mps 760 mmHg 87%
07:00 +6°C° 0 mm 1 mps 760 mmHg 87%
08:00 +7°C° 0 mm 2 mps 760 mmHg 82%
09:00 +8°C° 0 mm 2 mps 760 mmHg 76%
10:00 +10°C° 0 mm 2 mps 760 mmHg 71%
11:00 +12°C° 0 mm 2 mps 759 mmHg 69%
12:00 +12°C° 0 mm 3 mps 759 mmHg 68%
13:00 +13°C° 0 mm 3 mps 759 mmHg 67%
14:00 +12°C° 0 mm 3 mps 759 mmHg 70%
15:00 +13°C° 0 mm 2 mps 758 mmHg 73%
16:00 +12°C° 0 mm 2 mps 758 mmHg 76%
17:00 +11°C° 0 mm 3 mps 758 mmHg 79%
18:00 +10°C° 0 mm 3 mps 757 mmHg 82%
19:00 +9°C° 0 mm 3 mps 757 mmHg 84%
20:00 +9°C° 0 mm 3 mps 757 mmHg 84%
21:00 +8°C° 0 mm 3 mps 757 mmHg 83%
22:00 +7°C° 0 mm 4 mps 757 mmHg 82%
23:00 +7°C° 0 mm 4 mps 757 mmHg 82%

26 October, Monday

Time Temperature Precipitation Wind Pressure Humidity
00:00 +7°C° 0 mm 4 mps 756 mmHg 81%
01:00 +7°C° 0 mm 4 mps 756 mmHg 81%
02:00 +6°C° 0 mm 4 mps 755 mmHg 80%
03:00 +6°C° 0 mm 4 mps 755 mmHg 80%
04:00 +6°C° 0 mm 4 mps 755 mmHg 80%
05:00 +6°C° 0 mm 4 mps 754 mmHg 81%
06:00 +6°C° 0 mm 5 mps 754 mmHg 81%
07:00 +6°C° 0 mm 5 mps 754 mmHg 82%
08:00 +7°C° 0 mm 5 mps 753 mmHg 77%
09:00 +8°C° 0 mm 5 mps 753 mmHg 72%
10:00 +10°C° 0 mm 6 mps 752 mmHg 68%
11:00 +11°C° 0 mm 6 mps 752 mmHg 65%
12:00 +13°C° 0 mm 5 mps 752 mmHg 63%
13:00 +14°C° 0 mm 5 mps 751 mmHg 60%
14:00 +13°C° 0 mm 5 mps 751 mmHg 63%
15:00 +13°C° 0 mm 4 mps 751 mmHg 65%
16:00 +12°C° 0 mm 3 mps 750 mmHg 68%
17:00 +12°C° 0 mm 3 mps 751 mmHg 71%
18:00 +11°C° 0 mm 3 mps 751 mmHg 74%
19:00 +10°C° 0 mm 3 mps 751 mmHg 77%
20:00 +10°C° 0 mm 3 mps 751 mmHg 79%
21:00 +10°C° 0 mm 3 mps 751 mmHg 82%
22:00 +9°C° 0 mm 3 mps 751 mmHg 84%
23:00 +9°C° 0 mm 3 mps 751 mmHg 86%
Show more